Date String (YYYY-MM-DD hh:mm:ss) UTC,Instrument flags,absolute air pressure of the measurement (hPa),sample flow rate (lpm),inlet stack bypass flow (lpm),air temperature of the measurement (°C),ambient temperature measured by the external sensor (°C),aerosol sample conditioner tube jacket temperature (°C),OPC LED temperature (°C),internal box temperature (°C),relative humidity of the measurement (%),span deviation,mass concentration of particles derived from Lorenz-Mie calculation of OPC scattering (μg/m³),mass concentration of particles derived from Lorenz-Mie calculation of OPC scattering (μg/m³),mass concentration of particles derived from Lorenz-Mie calculation of OPC scattering (μg/m³)
DateTimeUTC,F1_M11,P_M11,Q1_M11,Q2_M11,T1_M11,T2_M11,T3_M11,T4_M11,T5_M11,U1_M11,ZSPAN_M11,X0_M11,X2_M11,X1_M11
2023-12-26 11:00:00,SystemResetWarning,0822.1,5.01,000.00,018.9,018.6,000.0,027.2,020.0,10.5,0000.0,0004.48,0002.07,0001.63
2023-12-26 11:01:00,SystemResetWarning,0822.1,5.00,000.00,018.9,018.4,000.0,027.3,020.0,10.6,0000.0,0004.36,0002.00,0001.59
2023-12-26 11:02:00,SystemResetWarning,0822.1,4.99,000.00,018.8,018.2,000.0,027.3,020.0,10.6,0000.0,0004.27,0001.90,0001.52
2023-12-26 11:03:00,SystemResetWarning,0822.1,4.99,000.00,018.8,018.0,000.0,027.3,020.0,10.6,0000.0,0004.13,0001.80,0001.44
2023-12-26 11:04:00,SystemResetWarning,0822.1,5.01,000.00,018.8,017.9,000.0,027.3,020.0,10.6,0000.0,0003.25,0001.73,0001.38
2023-12-26 11:05:00,SystemResetWarning,0822.2,5.01,000.00,018.8,017.8,000.0,027.3,020.0,10.7,0000.0,0002.92,0001.64,0001.31
2023-12-26 11:06:00,SystemResetWarning,0822.2,5.00,000.00,018.8,017.7,000.0,027.3,020.0,10.6,0000.0,0003.99,0001.60,0001.26
2023-12-26 11:07:00,SystemResetWarning,0822.3,4.99,000.00,018.7,017.6,000.0,027.3,020.0,10.6,0000.0,0003.87,0001.48,0001.19
2023-12-26 11:08:00,SystemResetWarning,0822.2,4.99,000.00,018.7,017.6,000.0,027.3,020.0,10.6,0000.0,0003.75,0001.39,0001.13
2023-12-26 11:09:00,SystemResetWarning,0822.2,5.00,000.00,018.7,017.5,000.0,027.3,020.0,10.6,0000.0,0003.71,0001.35,0001.08
2023-12-26 11:10:00,SystemResetWarning,0822.2,5.00,000.00,018.7,017.4,000.0,027.3,020.0,10.7,0000.0,0003.61,0001.28,0001.04
2023-12-26 11:11:00,SystemResetWarning,0822.3,5.00,000.00,018.7,017.3,000.0,027.3,020.0,10.8,0000.0,0003.52,0001.20,0000.99
2023-12-26 11:12:00,SystemResetWarning,0822.4,5.01,000.00,018.7,017.4,000.0,027.3,020.1,10.9,0000.0,0003.57,0001.20,0000.97
2023-12-26 11:13:00,SystemResetWarning,0822.4,5.00,000.00,018.8,018.3,000.0,027.2,020.5,11.0,0000.0,0003.52,0001.20,0000.96
2023-12-26 11:14:00,SystemResetWarning,0822.4,5.00,000.00,019.0,019.2,000.0,027.2,020.8,11.1,0000.0,0003.69,0001.26,0000.97
2023-12-26 11:15:00,SystemResetWarning,0822.4,5.00,000.00,019.0,019.1,000.0,027.2,020.5,11.1,0000.0,0003.66,0001.25,0000.98
2023-12-26 11:16:00,SystemResetWarning,0822.4,4.99,000.00,019.0,018.9,000.0,027.2,020.2,10.9,0000.0,0003.71,0001.28,0000.98
2023-12-26 11:17:00,SystemResetWarning,0822.4,4.99,000.00,018.9,018.7,000.0,027.2,020.0,10.7,0000.0,0002.62,0001.28,0000.99
2023-12-26 11:18:00,SystemResetWarning,0822.4,5.00,000.00,018.9,018.5,000.0,027.2,020.0,10.7,0000.0,0002.13,0001.29,0001.00
2023-12-26 11:19:00,SystemResetWarning,0822.4,5.01,000.00,018.9,018.4,000.0,027.2,020.0,10.6,0000.0,0002.13,0001.28,0000.99
2023-12-26 11:20:00,SystemResetWarning,0822.4,5.00,000.00,018.9,018.2,000.0,027.3,020.0,10.2,0000.0,0002.18,0001.30,0001.00
2023-12-26 11:21:00,SystemResetWarning,0822.4,5.00,000.00,018.8,018.1,000.0,027.3,020.0,10.0,0000.0,0002.22,0001.30,0001.00
2023-12-26 11:22:00,SystemResetWarning,0822.4,5.00,000.00,018.8,018.0,000.0,027.3,020.0,10.0,0000.0,0002.26,0001.32,0001.00
2023-12-26 11:23:00,SystemResetWarning,0822.4,5.00,000.00,018.8,017.9,000.0,027.3,020.0,10.1,0000.0,0002.34,0001.35,0001.02
2023-12-26 11:24:00,SystemResetWarning,0822.4,5.00,000.00,018.8,017.8,000.0,027.3,020.0,10.3,0000.0,0002.44,0001.38,0001.03
2023-12-26 11:25:00,SystemResetWarning,0822.4,5.00,000.00,018.8,017.8,000.0,027.3,020.0,10.4,0000.0,0002.27,0001.34,0001.04
2023-12-26 11:26:00,SystemResetWarning,0822.4,5.00,000.00,018.8,017.7,000.0,027.3,020.0,10.1,0000.0,0002.25,0001.34,0001.04
2023-12-26 11:27:00,SystemResetWarning,0822.4,5.00,000.00,018.8,017.7,000.0,027.3,020.0,10.3,0000.0,0002.35,0001.37,0001.04
2023-12-26 11:28:00,SystemResetWarning,0822.4,5.01,000.00,018.8,017.6,000.0,027.3,020.0,10.6,0000.0,0002.33,0001.35,0001.02
2023-12-26 11:29:00,SystemResetWarning,0822.4,5.00,000.00,018.7,017.5,000.0,027.3,020.0,10.4,0000.0,0002.19,0001.32,0001.01
2023-12-26 11:30:00,SystemResetWarning,0822.4,4.99,000.00,018.7,017.5,000.0,027.3,020.0,10.5,0000.0,0002.14,0001.30,0000.99
2023-12-26 11:31:00,SystemResetWarning,0822.4,4.99,000.00,018.7,017.5,000.0,027.3,020.0,10.6,0000.0,0002.15,0001.30,0000.97
2023-12-26 11:32:00,SystemResetWarning,0822.4,5.01,000.00,018.7,017.4,000.0,027.3,020.0,10.8,0000.0,0002.12,0001.29,0000.95
2023-12-26 11:33:00,SystemResetWarning,0822.4,5.01,000.00,018.7,017.4,000.0,027.3,020.0,10.9,0000.0,0002.10,0001.29,0000.94
2023-12-26 11:34:00,SystemResetWarning,0822.5,5.01,000.00,018.7,017.3,000.0,027.3,020.0,10.9,0000.0,0001.97,0001.23,0000.92
2023-12-26 11:35:00,SystemResetWarning,0822.4,5.00,000.00,018.7,017.5,000.0,027.3,020.1,10.9,0000.0,0001.86,0001.19,0000.89
2023-12-26 11:36:00,SystemResetWarning,0822.5,5.00,000.00,018.8,018.4,000.0,027.2,020.5,10.9,0000.0,0001.87,0001.19,0000.88
2023-12-26 11:37:00,SystemResetWarning,0822.6,4.99,000.00,019.0,019.1,000.0,027.2,020.7,10.9,0000.0,0001.88,0001.21,0000.88
2023-12-26 11:38:00,SystemResetWarning,0823.1,5.00,000.00,019.0,019.0,000.0,027.2,020.4,10.9,0000.0,0001.82,0001.20,0000.88
2023-12-26 11:39:00,SystemResetWarning,0823.1,5.00,000.00,019.0,018.8,000.0,027.2,020.1,10.9,0000.0,0001.87,0001.23,0000.89
2023-12-26 11:40:00,SystemResetWarning,0822.8,5.00,000.00,018.9,018.6,000.0,027.2,020.0,11.0,0000.0,0001.89,0001.24,0000.89
2023-12-26 11:41:00,SystemResetWarning,0822.6,5.00,000.00,018.9,018.4,000.0,027.2,020.0,11.1,0000.0,0001.93,0001.26,0000.90
2023-12-26 11:42:00,SystemResetWarning,0822.6,5.00,000.00,018.9,018.2,000.0,027.2,020.0,11.1,0000.0,0001.97,0001.24,0000.91
2023-12-26 11:43:00,SystemResetWarning,0822.6,4.99,000.00,018.9,018.1,000.0,027.2,020.0,11.2,0000.0,0002.07,0001.25,0000.91
2023-12-26 11:44:00,SystemResetWarning,0822.6,4.99,000.00,018.8,018.0,000.0,027.3,020.0,11.2,0000.0,0002.26,0001.28,0000.91
2023-12-26 11:45:00,SystemResetWarning,0822.8,5.00,000.00,018.8,017.9,000.0,027.3,020.0,11.1,0000.0,0002.33,0001.28,0000.90
2023-12-26 11:46:00,SystemResetWarning,0822.7,5.01,000.00,018.8,017.8,000.0,027.3,020.0,11.1,0000.0,0002.89,0001.31,0000.91
2023-12-26 11:47:00,SystemResetWarning,0822.7,5.00,000.00,018.8,017.7,000.0,027.3,020.0,11.1,0000.0,0003.77,0001.32,0000.91
2023-12-26 11:48:00,SystemResetWarning,0822.9,4.99,000.00,018.8,017.7,000.0,027.3,020.0,11.0,0000.0,0003.78,0001.30,0000.90
2023-12-26 11:49:00,SystemResetWarning,0822.9,4.99,000.00,018.8,017.6,000.0,027.3,020.0,10.9,0000.0,0003.87,0001.29,0000.91
2023-12-26 11:50:00,SystemResetWarning,0822.7,5.00,000.00,018.8,017.6,000.0,027.3,020.0,10.5,0000.0,0003.83,0001.26,0000.91
2023-12-26 11:51:00,SystemResetWarning,0822.6,5.01,000.00,018.8,017.6,000.0,027.3,020.0,10.5,0000.0,0004.07,0001.26,0000.90
2023-12-26 11:52:00,SystemResetWarning,0822.7,5.00,000.00,018.8,017.6,000.0,027.3,020.0,10.5,0000.0,0004.82,0001.27,0000.90
2023-12-26 11:53:00,SystemResetWarning,0822.6,5.00,000.00,018.8,017.6,000.0,027.3,020.0,10.3,0000.0,0004.90,0001.32,0000.91
2023-12-26 11:54:00,SystemResetWarning,0822.7,4.99,000.00,018.8,017.6,000.0,027.3,020.0,10.2,0000.0,0004.85,0001.34,0000.92
2023-12-26 11:55:00,SystemResetWarning,0822.6,5.00,000.00,018.8,017.6,000.0,027.3,020.0,10.1,0000.0,0004.81,0001.35,0000.93
2023-12-26 11:56:00,SystemResetWarning,0822.6,5.01,000.00,018.7,017.5,000.0,027.3,020.0,10.3,0000.0,0004.89,0001.42,0000.96
2023-12-26 11:57:00,SystemResetWarning,0822.9,5.00,000.00,018.7,017.5,000.0,027.3,020.0,10.3,0000.0,0004.54,0001.44,0000.97
2023-12-26 11:58:00,SystemResetWarning,0823.0,4.99,000.00,018.7,017.5,000.0,027.3,020.0,10.3,0000.0,0003.59,0001.44,0000.97
2023-12-26 11:59:00,SystemResetWarning,0823.1,4.99,000.00,018.7,017.5,000.0,027.3,020.0,10.3,0000.0,0003.48,0001.42,0000.95
